Change the Weather History Date:

Friday, September 27, 2013

  Actual Average Record
Temperature  
Mean Temperature 58 °F -  
Max Temperature 77 °F 72 °F 87 °F (1954)
Min Temperature 39 °F 47 °F 32 °F (1947)
Degree Days  
Heating Degree Days 7    
Growing Degree Days 8 (Base 50)    
Moisture  
Dew Point 45 °F    
Average Humidity 69    
Maximum Humidity 100    
Minimum Humidity 32    
Precipitation  
Precipitation 0.01 in - - ()
Sea Level Pressure  
Sea Level Pressure 30.16 in    
Wind  
Wind Speed 1 mph (ENE)    
Max Wind Speed 8 mph    
Max Gust Speed -    
Visibility 10 miles    
Events      
Averages and records for this station are not official NWS values.
T = Trace of Precipitation, MM = Missing Value Source: NWS Daily Summary

Daily Weather History Graph

Daily Weather History Graph

Search for Another Location

Airport or City:

Trip Planner

Search our weather history database for the weather conditions in past years. The results will help you decide how hot, cold, wet, or windy it might be!

Date:

Astronomy

Sep. 27, 2013 Rise Set
Actual Time 7:25 AM EDT 7:20 PM EDT
Civil Twilight 6:58 AM EDT 7:47 PM EDT
Nautical Twilight 6:26 AM EDT 8:19 PM EDT
Astronomical Twilight 5:54 AM EDT 8:51 PM EDT
Moon 12:19 AM EDT (9/27) 2:59 PM EDT (9/27)
Length of Visible Light 12h 49m
Length of Day
11h 55m
Last Quarter, 45% of the Moon is Illuminated
Sep 27
Last Quarter
Oct 4
New
Oct 11
First Quarter
Oct 18
Full
Oct 26
Last Quarter

Hourly Weather History & Observations

Time (EDT) Temp. Dew Point Humidity Pressure Visibility Wind Dir Wind Speed Gust Speed Precip Events Conditions
12:16 AM 46.4 °F 44.6 °F 93% 30.12 in 10.0 mi Calm Calm - N/A   Clear
12:36 AM 46.4 °F 44.6 °F 93% 30.12 in 10.0 mi Calm Calm - N/A   Clear
12:56 AM 46.4 °F 44.6 °F 93% 30.12 in 10.0 mi Calm Calm - N/A   Clear
1:16 AM 44.6 °F 42.8 °F 93% 30.13 in 10.0 mi Calm Calm - N/A   Clear
1:36 AM 44.6 °F 42.8 °F 93% 30.12 in 10.0 mi Calm Calm - N/A   Clear
1:56 AM 44.6 °F 42.8 °F 93% 30.12 in 10.0 mi Calm Calm - N/A   Clear
2:17 AM 44.6 °F 42.8 °F 93% 30.13 in 10.0 mi Calm Calm - N/A   Clear
2:36 AM 44.6 °F 42.8 °F 93% 30.13 in 10.0 mi Calm Calm - N/A   Clear
2:56 AM 42.8 °F 42.8 °F 100% 30.13 in 10.0 mi Calm Calm - N/A   Clear
3:17 AM 42.8 °F 41.0 °F 93% 30.12 in 10.0 mi Calm Calm - N/A   Clear
3:36 AM 42.8 °F 41.0 °F 93% 30.13 in 10.0 mi Calm Calm - N/A   Clear
3:56 AM 42.8 °F 41.0 °F 93% 30.13 in 10.0 mi Calm Calm - N/A   Clear
4:17 AM 42.8 °F 41.0 °F 93% 30.14 in 10.0 mi Calm Calm - N/A   Clear
4:36 AM 42.8 °F 41.0 °F 93% 30.14 in 10.0 mi Calm Calm - N/A   Clear
4:56 AM 42.8 °F 41.0 °F 93% 30.14 in 10.0 mi Calm Calm - N/A   Clear
5:17 AM 41.0 °F 41.0 °F 100% 30.15 in 10.0 mi Calm Calm - N/A   Clear
5:36 AM 41.0 °F 39.2 °F 93% 30.15 in 10.0 mi Calm Calm - N/A   Clear
5:56 AM 41.0 °F 39.2 °F 93% 30.15 in 10.0 mi Calm Calm - N/A   Clear
6:17 AM 41.0 °F 39.2 °F 93% 30.15 in 10.0 mi Calm Calm - N/A   Clear
6:36 AM 41.0 °F 41.0 °F 100% 30.16 in 10.0 mi Calm Calm - N/A   Clear
6:56 AM 41.0 °F 39.2 °F 93% 30.16 in 10.0 mi Calm Calm - N/A   Clear
7:16 AM 39.2 °F 37.4 °F 93% 30.17 in 10.0 mi Calm Calm - N/A   Clear
7:36 AM 39.2 °F 37.4 °F 93% 30.17 in 10.0 mi Calm Calm - N/A   Clear
7:56 AM 41.0 °F 39.2 °F 93% 30.18 in 10.0 mi Calm Calm - N/A   Clear
8:16 AM 42.8 °F 42.8 °F 100% 30.19 in 10.0 mi Calm Calm - N/A   Clear
8:36 AM 46.4 °F 44.6 °F 93% 30.19 in 10.0 mi Calm Calm - N/A   Clear
8:56 AM 50.0 °F 46.4 °F 87% 30.20 in 10.0 mi Calm Calm - N/A   Clear
9:16 AM 53.6 °F 50.0 °F 88% 30.20 in 10.0 mi Calm Calm - N/A   Clear
9:36 AM 55.4 °F 50.0 °F 82% 30.20 in 10.0 mi Calm Calm - N/A   Clear
9:56 AM 59.0 °F 50.0 °F 72% 30.20 in 10.0 mi Calm Calm - N/A   Clear
10:16 AM 60.8 °F 48.2 °F 63% 30.21 in 10.0 mi Calm Calm - N/A   Clear
10:36 AM 62.6 °F 50.0 °F 63% 30.21 in 10.0 mi Calm Calm - N/A   Clear
10:56 AM 64.4 °F 50.0 °F 59% 30.20 in 10.0 mi Calm Calm - N/A   Clear
11:16 AM 66.2 °F 50.0 °F 56% 30.20 in 10.0 mi Calm Calm - N/A   Clear
11:36 AM 68.0 °F 50.0 °F 52% 30.21 in 10.0 mi Calm Calm - N/A   Clear
11:56 AM 69.8 °F 50.0 °F 49% 30.20 in 10.0 mi NE 3.5 mph - N/A   Clear
12:16 PM 71.6 °F 50.0 °F 46% 30.20 in 10.0 mi NE 4.6 mph - N/A   Clear
12:36 PM 71.6 °F 50.0 °F 46% 30.20 in 10.0 mi East 5.8 mph - N/A   Clear
12:57 PM 71.6 °F 48.2 °F 43% 30.20 in 10.0 mi Calm Calm - N/A   Clear
1:16 PM 73.4 °F 48.2 °F 41% 30.19 in 10.0 mi ESE 6.9 mph - N/A   Clear
1:36 PM 73.4 °F 44.6 °F 36% 30.18 in 10.0 mi ESE 3.5 mph - N/A   Clear
1:57 PM 75.2 °F 44.6 °F 34% 30.17 in 10.0 mi East 4.6 mph - N/A   Clear
2:16 PM 77.0 °F 46.4 °F 34% 30.16 in 10.0 mi NE 6.9 mph - N/A   Clear
2:36 PM 77.0 °F 46.4 °F 34% 30.16 in 10.0 mi ENE 8.1 mph - N/A   Clear
2:57 PM 77.0 °F 46.4 °F 34% 30.15 in 10.0 mi NE 4.6 mph - N/A   Clear
3:16 PM 75.2 °F 46.4 °F 36% 30.15 in 10.0 mi ENE 5.8 mph - N/A   Clear
3:36 PM 77.0 °F 46.4 °F 34% 30.15 in 10.0 mi Calm Calm - 0.01 in   Clear
3:57 PM 77.0 °F 44.6 °F 32% 30.14 in 10.0 mi NNE 3.5 mph - 0.01 in   Clear
4:16 PM 77.0 °F 44.6 °F 32% 30.14 in 10.0 mi ENE 5.8 mph - N/A   Clear
4:36 PM 77.0 °F 44.6 °F 32% 30.14 in 10.0 mi NE 8.1 mph - N/A   Clear
4:57 PM 77.0 °F 44.6 °F 32% 30.14 in 10.0 mi NNE 5.8 mph - N/A   Clear
5:16 PM 75.2 °F 44.6 °F 34% 30.14 in 10.0 mi NE 5.8 mph - N/A   Clear
5:36 PM 75.2 °F 44.6 °F 34% 30.14 in 10.0 mi East 4.6 mph - N/A   Clear
5:57 PM 73.4 °F 44.6 °F 36% 30.14 in 10.0 mi East 5.8 mph - N/A   Clear
6:16 PM 73.4 °F 44.6 °F 36% 30.14 in 10.0 mi ENE 5.8 mph - N/A   Clear
6:36 PM 71.6 °F 46.4 °F 41% 30.14 in 10.0 mi ENE 6.9 mph - N/A   Clear
6:56 PM 69.8 °F 46.4 °F 43% 30.15 in 10.0 mi ENE 4.6 mph - N/A   Clear
7:16 PM 66.2 °F 46.4 °F 49% 30.14 in 10.0 mi East 5.8 mph - N/A   Clear
7:36 PM 62.6 °F 48.2 °F 59% 30.15 in 10.0 mi East 4.6 mph - N/A   Clear
7:56 PM 60.8 °F 50.0 °F 68% 30.15 in 10.0 mi ENE 4.6 mph - N/A   Clear
8:16 PM 59.0 °F 50.0 °F 72% 30.15 in 10.0 mi ENE 3.5 mph - N/A   Clear
8:36 PM 55.4 °F 50.0 °F 82% 30.15 in 10.0 mi East 3.5 mph - N/A   Clear
8:56 PM 55.4 °F 50.0 °F 82% 30.15 in 10.0 mi East 4.6 mph - N/A   Clear
9:16 PM 57.2 °F 48.2 °F 72% 30.15 in 10.0 mi East 4.6 mph - N/A   Clear
9:36 PM 59.0 °F 48.2 °F 67% 30.16 in 10.0 mi East 4.6 mph - N/A   Clear
9:56 PM 57.2 °F 48.2 °F 72% 30.17 in 10.0 mi East 5.8 mph - N/A   Clear
10:16 PM 57.2 °F 48.2 °F 72% 30.17 in 10.0 mi East 5.8 mph - N/A   Clear
10:36 PM 55.4 °F 46.4 °F 72% 30.17 in 10.0 mi East 4.6 mph - N/A   Clear
10:56 PM 53.6 °F 46.4 °F 77% 30.17 in 10.0 mi Calm Calm - N/A   Clear
11:16 PM 50.0 °F 46.4 °F 87% 30.17 in 10.0 mi Calm Calm - N/A   Clear
11:37 PM 50.0 °F 46.4 °F 87% 30.17 in 10.0 mi NE 3.5 mph - N/A   Clear
11:56 PM 50.0 °F 46.4 °F 87% 30.17 in 10.0 mi ENE 3.5 mph - N/A   Clear